| time (UTC) | temp F | wind direction | speed MPH | gust MPH | rain 1hr in | rain 24hr in | rain mn in | humidity % | barometer mb |
| 20260510092828 | 57 | 323 | 0.0 | 3.0 | 0.00 | 0.07 | 0.00 | 79 | 1009.6 |
| 20260510091821 | 57 | 323 | 1.0 | 3.0 | 0.00 | 0.07 | 0.00 | 79 | 1009.7 |
| 20260510090841 | 57 | 323 | 0.0 | 2.0 | 0.00 | 0.07 | 0.00 | 78 | 1009.5 |
| 20260510085843 | 57 | 323 | 0.0 | 4.0 | 0.00 | 0.09 | 0.00 | 79 | 1009.3 |
| 20260510084825 | 57 | 180 | 0.0 | 3.0 | 0.00 | 0.09 | 0.00 | 78 | 1009.0 |
| 20260510083817 | 57 | 180 | 1.0 | 3.0 | 0.00 | 0.09 | 0.00 | 78 | 1009.0 |
| 20260510082833 | 57 | 175 | 1.0 | 2.0 | 0.00 | 0.09 | 0.00 | 78 | 1008.9 |
| 20260510081824 | 58 | 175 | 1.0 | 3.0 | 0.00 | 0.09 | 0.00 | 78 | 1009.0 |
| 20260510080815 | 58 | 173 | 1.0 | 2.0 | 0.00 | 0.09 | 0.00 | 78 | 1008.6 |
| 20260510075835 | 58 | 173 | 0.0 | 4.0 | 0.00 | 0.10 | 0.00 | 77 | 1008.4 |
| 20260510074838 | 58 | 173 | 0.0 | 3.0 | 0.00 | 0.10 | 0.00 | 77 | 1008.4 |
| 20260510073830 | 58 | 173 | 2.0 | 4.0 | 0.00 | 0.10 | 0.00 | 77 | 1008.3 |
| 20260510072820 | 59 | 180 | 1.0 | 3.0 | 0.00 | 0.10 | 0.00 | 76 | 1008.4 |
| 20260510071837 | 59 | 180 | 1.0 | 4.0 | 0.00 | 0.10 | 0.00 | 76 | 1008.3 |
| 20260510070828 | 58 | 192 | 1.0 | 3.0 | 0.00 | 0.10 | 0.00 | 77 | 1008.1 |
| 20260510065831 | 58 | 142 | 1.0 | 2.0 | 0.00 | 0.10 | 0.00 | 77 | 1008.2 |
| 20260510064835 | 58 | 142 | 1.0 | 4.0 | 0.00 | 0.10 | 0.00 | 77 | 1008.4 |
| 20260510063829 | 58 | 180 | 1.0 | 3.0 | 0.00 | 0.10 | 0.00 | 77 | 1008.6 |
| 20260510062820 | 58 | 189 | 0.0 | 3.0 | 0.00 | 0.10 | 0.00 | 77 | 1008.6 |
| 20260510061838 | 58 | 189 | 0.0 | 2.0 | 0.00 | 0.10 | 0.00 | 76 | 1008.7 |
| 20260510060834 | 59 | 189 | 1.0 | 3.0 | 0.00 | 0.10 | 0.00 | 75 | 1008.8 |
| 20260510055815 | 59 | 194 | 1.0 | 3.0 | 0.00 | 0.10 | 0.00 | 75 | 1008.7 |
| 20260510054838 | 59 | 194 | 1.0 | 2.0 | 0.00 | 0.10 | 0.00 | 75 | 1008.8 |
| 20260510053834 | 59 | 194 | 1.0 | 3.0 | 0.00 | 0.10 | 0.00 | 75 | 1008.8 |
| 20260510052826 | 59 | 157 | 1.0 | 3.0 | 0.00 | 0.10 | 0.00 | 75 | 1008.8 |
| 20260510051819 | 59 | 153 | 1.0 | 4.0 | 0.00 | 0.10 | 0.00 | 75 | 1008.8 |
| 20260510050838 | 59 | 178 | 1.0 | 4.0 | 0.00 | 0.10 | 0.00 | 75 | 1008.9 |
| 20260510045820 | 60 | 153 | 0.0 | 2.0 | 0.00 | 0.10 | 0.00 | 74 | 1008.8 |
| 20260510044824 | 60 | 153 | 1.0 | 3.0 | 0.00 | 0.10 | 0.00 | 74 | 1008.8 |
| 20260510043842 | 60 | 153 | 0.0 | 3.0 | 0.00 | 0.10 | 0.00 | 73 | 1008.8 |
| 20260510042839 | 61 | 167 | 1.0 | 3.0 | 0.00 | 0.10 | 0.00 | 73 | 1008.7 |
| 20260510041833 | 60 | 166 | 1.0 | 3.0 | 0.00 | 0.10 | 0.00 | 73 | 1008.7 |
| 20260510040826 | 61 | 148 | 0.0 | 3.0 | 0.00 | 0.10 | 0.00 | 73 | 1008.7 |
| 20260510035828 | 60 | 192 | 1.0 | 5.0 | 0.00 | 0.10 | 0.10 | 73 | 1008.6 |
| 20260510034831 | 61 | 185 | 1.0 | 4.0 | 0.00 | 0.10 | 0.10 | 73 | 1008.6 |
| 20260510033821 | 61 | 186 | 1.0 | 2.0 | 0.00 | 0.10 | 0.10 | 72 | 1008.7 |
| 20260510032840 | 61 | 186 | 1.0 | 3.0 | 0.00 | 0.10 | 0.10 | 72 | 1008.7 |
| 20260510031832 | 61 | 186 | 0.0 | 2.0 | 0.00 | 0.10 | 0.10 | 72 | 1008.6 |
| 20260510030823 | 61 | 186 | 0.0 | 2.0 | 0.00 | 0.10 | 0.10 | 72 | 1008.5 |
| 20260510025822 | 61 | 186 | 0.0 | 2.0 | 0.00 | 0.10 | 0.10 | 71 | 1008.5 |
| 20260510024824 | 61 | 186 | 0.0 | 2.0 | 0.00 | 0.10 | 0.10 | 71 | 1008.4 |
| 20260510023816 | 61 | 186 | 0.0 | 2.0 | 0.00 | 0.10 | 0.10 | 72 | 1008.3 |
| 20260510022831 | 61 | 186 | 0.0 | 2.0 | 0.00 | 0.10 | 0.10 | 71 | 1008.2 |
| 20260510021824 | 62 | 186 | 0.0 | 1.0 | 0.00 | 0.10 | 0.10 | 70 | 1008.0 |
| 20260510020845 | 63 | 186 | 0.0 | 3.0 | 0.00 | 0.10 | 0.10 | 69 | 1007.9 |
| 20260510015827 | 63 | 186 | 1.0 | 2.0 | 0.00 | 0.10 | 0.10 | 69 | 1007.7 |
| 20260510014851 | 63 | 186 | 0.0 | 1.0 | 0.00 | 0.10 | 0.10 | 68 | 1007.6 |
| 20260510013823 | 63 | 186 | 0.0 | 2.0 | 0.00 | 0.10 | 0.10 | 68 | 1007.5 |
| 20260510012842 | 64 | 194 | 0.0 | 1.0 | 0.00 | 0.10 | 0.10 | 67 | 1007.4 |
| 20260510011835 | 65 | 194 | 0.0 | 1.0 | 0.00 | 0.10 | 0.10 | 66 | 1007.2 |
| 20260510010826 | 65 | 194 | 1.0 | 2.0 | 0.00 | 0.10 | 0.10 | 63 | 1007.1 |
| 20260510005830 | 66 | 194 | 0.0 | 1.0 | 0.00 | 0.10 | 0.10 | 63 | 1006.9 |
| 20260510004832 | 67 | 194 | 0.0 | 1.0 | 0.00 | 0.10 | 0.10 | 62 | 1006.7 |
| 20260510003824 | 68 | 194 | 0.0 | 2.0 | 0.00 | 0.10 | 0.10 | 58 | 1006.7 |
| 20260510002816 | 69 | 194 | 0.0 | 3.0 | 0.00 | 0.10 | 0.10 | 57 | 1006.4 |
| 20260510001834 | 70 | 194 | 0.0 | 4.0 | 0.00 | 0.10 | 0.10 | 56 | 1006.2 |
| 20260510000824 | 70 | 221 | 1.0 | 6.0 | 0.00 | 0.10 | 0.10 | 55 | 1006.0 |
| 20260509235829 | 70 | 182 | 2.0 | 6.0 | 0.00 | 0.10 | 0.10 | 54 | 1005.9 |
| 20260509234832 | 71 | 165 | 3.0 | 6.0 | 0.00 | 0.10 | 0.10 | 53 | 1005.9 |
| 20260509233822 | 71 | 221 | 2.0 | 5.0 | 0.00 | 0.10 | 0.10 | 54 | 1005.9 |
| 20260509232840 | 71 | 146 | 2.0 | 9.0 | 0.00 | 0.10 | 0.10 | 53 | 1005.9 |
| 20260509231832 | 71 | 179 | 2.0 | 9.0 | 0.00 | 0.10 | 0.10 | 52 | 1005.8 |
| 20260509230826 | 71 | 192 | 4.0 | 9.0 | 0.00 | 0.10 | 0.10 | 52 | 1005.8 |
| 20260509225829 | 72 | 174 | 3.0 | 8.0 | 0.00 | 0.10 | 0.10 | 52 | 1005.7 |
| 20260509224831 | 72 | 161 | 3.0 | 8.0 | 0.00 | 0.10 | 0.10 | 52 | 1005.7 |
| 20260509223823 | 72 | 175 | 3.0 | 11.0 | 0.00 | 0.10 | 0.10 | 53 | 1005.7 |
| 20260509222902 | 72 | 189 | 4.0 | 9.0 | 0.00 | 0.10 | 0.10 | 54 | 1005.7 |
| 20260509221831 | 72 | 171 | 2.0 | 8.0 | 0.00 | 0.10 | 0.10 | 55 | 1005.6 |
| 20260509220825 | 72 | 195 | 4.0 | 10.0 | 0.00 | 0.10 | 0.10 | 54 | 1005.6 |
| 20260509215828 | 72 | 185 | 5.0 | 12.0 | 0.00 | 0.10 | 0.10 | 54 | 1005.7 |
| 20260509214832 | 72 | 158 | 2.0 | 10.0 | 0.00 | 0.10 | 0.10 | 54 | 1005.7 |
| 20260509213824 | 72 | 177 | 1.0 | 5.0 | 0.00 | 0.10 | 0.10 | 55 | 1005.7 |
| 20260509212842 | 72 | 180 | 3.0 | 11.0 | 0.00 | 0.10 | 0.10 | 54 | 1005.8 |
| 20260509211838 | 72 | 142 | 4.0 | 7.0 | 0.00 | 0.10 | 0.10 | 53 | 1005.9 |
| 20260509210829 | 72 | 178 | 4.0 | 8.0 | 0.00 | 0.10 | 0.10 | 54 | 1005.9 |
| 20260509205834 | 73 | 178 | 3.0 | 8.0 | 0.00 | 0.10 | 0.10 | 55 | 1005.9 |
| 20260509204838 | 72 | 180 | 3.0 | 10.0 | 0.00 | 0.10 | 0.10 | 56 | 1005.9 |
| 20260509203831 | 72 | 153 | 3.0 | 10.0 | 0.00 | 0.10 | 0.10 | 55 | 1006.0 |
| 20260509202822 | 72 | 146 | 3.0 | 8.0 | 0.00 | 0.10 | 0.10 | 56 | 1006.1 |
| 20260509201840 | 72 | 164 | 3.0 | 8.0 | 0.00 | 0.10 | 0.10 | 58 | 1006.2 |
| 20260509200830 | 71 | 158 | 3.0 | 11.0 | 0.00 | 0.10 | 0.10 | 58 | 1006.3 |
| 20260509195834 | 71 | 187 | 5.0 | 11.0 | 0.00 | 0.10 | 0.10 | 55 | 1006.4 |
| 20260509194844 | 71 | 184 | 4.0 | 11.0 | 0.00 | 0.10 | 0.10 | 58 | 1006.4 |
| 20260509193816 | 71 | 168 | 4.0 | 10.0 | 0.00 | 0.10 | 0.10 | 61 | 1006.5 |
| 20260509192833 | 71 | 156 | 3.0 | 8.0 | 0.00 | 0.10 | 0.10 | 57 | 1006.6 |
| 20260509191825 | 71 | 257 | 3.0 | 8.0 | 0.00 | 0.10 | 0.10 | 63 | 1006.6 |
| 20260509190842 | 70 | 171 | 1.0 | 9.0 | 0.00 | 0.10 | 0.10 | 62 | 1006.6 |
| 20260509185824 | 71 | 192 | 2.0 | 7.0 | 0.00 | 0.10 | 0.10 | 61 | 1006.8 |
| 20260509184830 | 70 | 209 | 2.0 | 6.0 | 0.00 | 0.10 | 0.10 | 62 | 1006.9 |
| 20260509183848 | 70 | 236 | 1.0 | 10.0 | 0.00 | 0.10 | 0.10 | 62 | 1006.8 |
| 20260509182840 | 69 | 195 | 2.0 | 8.0 | 0.00 | 0.10 | 0.10 | 61 | 1006.9 |
| 20260509181834 | 69 | 211 | 1.0 | 5.0 | 0.00 | 0.10 | 0.10 | 61 | 1006.9 |
| 20260509180829 | 69 | 229 | 2.0 | 6.0 | 0.00 | 0.10 | 0.10 | 62 | 1006.9 |
| 20260509175832 | 68 | 190 | 1.0 | 6.0 | 0.00 | 0.10 | 0.10 | 65 | 1007.0 |
| 20260509174835 | 68 | 128 | 6.0 | 13.0 | 0.00 | 0.10 | 0.10 | 65 | 1007.0 |
| 20260509173828 | 68 | 227 | 3.0 | 10.0 | 0.00 | 0.10 | 0.10 | 63 | 1006.9 |
| 20260509172847 | 67 | 211 | 1.0 | 4.0 | 0.00 | 0.10 | 0.10 | 65 | 1007.0 |
| 20260509171841 | 67 | 234 | 2.0 | 8.0 | 0.00 | 0.10 | 0.10 | 67 | 1007.0 |
| 20260509170832 | 67 | 239 | 2.0 | 6.0 | 0.00 | 0.10 | 0.10 | 66 | 1006.9 |
| 20260509165836 | 67 | 159 | 2.0 | 6.0 | 0.00 | 0.10 | 0.10 | 67 | 1007.0 |
| 20260509164819 | 66 | 194 | 3.0 | 10.0 | 0.00 | 0.10 | 0.10 | 67 | 1007.0 |
| 20260509163838 | 66 | 225 | 1.0 | 9.0 | 0.00 | 0.10 | 0.10 | 68 | 1007.1 |
| 20260509162830 | 65 | 213 | 3.0 | 9.0 | 0.00 | 0.10 | 0.10 | 68 | 1007.1 |
| 20260509161823 | 65 | 184 | 3.0 | 8.0 | 0.00 | 0.10 | 0.10 | 69 | 1007.2 |
| 20260509160815 | 64 | 140 | 4.0 | 9.0 | 0.00 | 0.10 | 0.10 | 71 | 1007.0 |
| 20260509155815 | 64 | 195 | 3.0 | 7.0 | 0.00 | 0.10 | 0.10 | 72 | 1006.9 |
| 20260509154839 | 62 | 167 | 3.0 | 7.0 | 0.00 | 0.10 | 0.10 | 72 | 1007.0 |
| 20260509153830 | 62 | 175 | 3.0 | 9.0 | 0.00 | 0.10 | 0.10 | 73 | 1006.9 |
| 20260509152822 | 61 | 166 | 3.0 | 8.0 | 0.00 | 0.10 | 0.10 | 75 | 1006.8 |
| 20260509151841 | 61 | 165 | 3.0 | 9.0 | 0.00 | 0.10 | 0.10 | 76 | 1006.7 |
| 20260509150830 | 60 | 171 | 1.0 | 8.0 | 0.00 | 0.10 | 0.10 | 76 | 1006.7 |
| 20260509145816 | 59 | 201 | 2.0 | 7.0 | 0.01 | 0.10 | 0.10 | 77 | 1006.7 |
| 20260509144820 | 59 | 198 | 1.0 | 10.0 | 0.01 | 0.10 | 0.10 | 79 | 1006.7 |
| 20260509143840 | 58 | 185 | 2.0 | 8.0 | 0.01 | 0.10 | 0.10 | 80 | 1006.6 |
| 20260509142831 | 57 | 158 | 3.0 | 7.0 | 0.01 | 0.10 | 0.10 | 81 | 1006.6 |
| 20260509141849 | 57 | 182 | 6.0 | 8.0 | 0.01 | 0.10 | 0.10 | 83 | 1006.7 |
| 20260509140814 | 57 | 183 | 3.0 | 8.0 | 0.01 | 0.10 | 0.10 | 84 | 1006.5 |
| 20260509135817 | 56 | 140 | 1.0 | 5.0 | 0.00 | 0.09 | 0.09 | 85 | 1006.4 |
| 20260509134838 | 56 | 191 | 2.0 | 5.0 | 0.00 | 0.09 | 0.09 | 85 | 1006.3 |
| 20260509133829 | 56 | 191 | 3.0 | 6.0 | 0.00 | 0.09 | 0.09 | 85 | 1006.4 |
| 20260509132820 | 55 | 193 | 1.0 | 6.0 | 0.00 | 0.09 | 0.09 | 85 | 1006.4 |
| 20260509131838 | 55 | 196 | 2.0 | 7.0 | 0.01 | 0.09 | 0.09 | 85 | 1006.5 |
| 20260509130829 | 55 | 9 | 1.0 | 4.0 | 0.01 | 0.09 | 0.09 | 85 | 1006.7 |
| 20260509125832 | 55 | 9 | 1.0 | 3.0 | 0.01 | 0.09 | 0.09 | 85 | 1006.6 |
| 20260509124835 | 55 | 11 | 0.0 | 1.0 | 0.01 | 0.09 | 0.09 | 85 | 1006.5 |
| 20260509123826 | 54 | 11 | 0.0 | 1.0 | 0.01 | 0.09 | 0.09 | 85 | 1006.5 |
| 20260509122818 | 54 | 11 | 0.0 | 0.0 | 0.02 | 0.09 | 0.09 | 85 | 1006.5 |
| 20260509121835 | 53 | 11 | 0.0 | 1.0 | 0.01 | 0.08 | 0.08 | 85 | 1006.6 |
| 20260509120827 | 53 | 11 | 0.0 | 1.0 | 0.01 | 0.08 | 0.08 | 85 | 1006.5 |
| 20260509115814 | 53 | 11 | 0.0 | 1.0 | 0.01 | 0.08 | 0.08 | 85 | 1006.4 |
| 20260509114831 | 53 | 11 | 0.0 | 1.0 | 0.02 | 0.08 | 0.08 | 85 | 1006.4 |
| 20260509113827 | 53 | 11 | 0.0 | 1.0 | 0.02 | 0.08 | 0.08 | 84 | 1006.4 |
| 20260509112819 | 53 | 11 | 0.0 | 1.0 | 0.01 | 0.07 | 0.07 | 84 | 1006.2 |
| 20260509111839 | 53 | 11 | 0.0 | 1.0 | 0.02 | 0.07 | 0.07 | 84 | 1006.2 |
| 20260509110829 | 53 | 349 | 0.0 | 1.0 | 0.02 | 0.07 | 0.07 | 84 | 1006.3 |
| 20260509105830 | 53 | 349 | 0.0 | 2.0 | 0.02 | 0.07 | 0.07 | 84 | 1006.3 |
| 20260509104833 | 53 | 349 | 0.0 | 2.0 | 0.02 | 0.06 | 0.06 | 84 | 1006.4 |
| 20260509103825 | 54 | 348 | 1.0 | 1.0 | 0.02 | 0.06 | 0.06 | 84 | 1006.4 |
| 20260509102815 | 54 | 349 | 0.0 | 2.0 | 0.02 | 0.06 | 0.06 | 84 | 1006.3 |
| 20260509101833 | 54 | 349 | 0.0 | 1.0 | 0.01 | 0.05 | 0.05 | 84 | 1006.3 |
| 20260509100850 | 54 | 349 | 0.0 | 1.0 | 0.02 | 0.05 | 0.05 | 84 | 1006.4 |
| 20260509095830 | 54 | 349 | 0.0 | 0.0 | 0.02 | 0.05 | 0.05 | 84 | 1006.9 |
| 20260509094832 | 54 | 349 | 0.0 | 1.0 | 0.01 | 0.04 | 0.04 | 84 | 1006.6 |
| 20260509093824 | 54 | 349 | 0.0 | 2.0 | 0.01 | 0.04 | 0.04 | 84 | 1006.6 |